Location: G�migny
(47.9646°N, 1.6950°E)
Time: 00:57:24
(UTC+00:00)

YAOGAN 6 - Pass Details

Date: 28 January 2020
Orbit: 465 x 506 km, 97.0° (Epoch: 20 February)

Event Time Altitude Azimuth Distance (km) Brightness Sun altitude
Rises 06:01:23 0° 24° (NNE) 2,533 6.4 -14.3°
Reaches altitude 10° 06:03:47 10° 39° (NE) 1,643 5.6 -13.9°
Maximum altitude 06:06:38 23° 94° (E) 1,047 5.3 -13.4°
Drops below altitude 10° 06:09:28 10° 148° (SSE) 1,620 5.9 -12.9°
Sets 06:11:47 0° 164° (SSE) 2,488 6.6 -12.6°
